Starlink 11550

operational
NORAD ID: 63052 Int'l Des: 2025-035 Owner: SPXS Country: US Constellation: starlink
LEOCIRCULAR

Starlink 11550について

説明を読み込み中...

リアルタイム位置

3D地球を読み込み中...

次回通過

高度履歴

Altitude vs Time

uPlot chart will show altitude changes over time

軌道要素

1 63052U 25035A 26033.97573516 .00206200 00000-0 15673-2 0 9992
2 63052 42.9987 224.3759 0001731 278.4518 81.6154 15.70895113 55764
Epoch: Feb 2, 2026 • Age: 15 hours

現在のステータス

高度 357.4 km
速度 7.70 km/s
衛星直下点 32.93°N, 93.1°W
打ち上げ日 Feb 21, 2025
運用期間 0.9 years
タイプ internet

技術仕様

分類 Payload
質量 960.00 kg
乾燥質量 910.00 kg
総質量 960.00 kg
長さ 0.30 m
直径 4.10 m
スパン 29.00 m
形状 Box + pan
製造者 SPXS
バスタイプ Starlink V2MD
フェーズステータス In Orbit
所有者/国 SPXS/US

大規模コンステレーション

Loading constellations...